Weather reports worldwide

Advertisment
Trawscoed, United Kingdom (3503): temperature & dewpoint: 16.04.2018 17:00:00 - 22.04.2018 17:00:00 (BST)Trawscoed, United Kingdom (3503): temperature -20cm & temperature -100cm: 16.04.2018 17:00:00 - 22.04.2018 17:00:00 (BST)Trawscoed, United Kingdom (3503): wind speed & gusts: 16.04.2018 17:00:00 - 22.04.2018 17:00:00 (BST)Trawscoed, United Kingdom (3503): wind direction: 16.04.2018 17:00:00 - 22.04.2018 17:00:00 (BST)Trawscoed, United Kingdom (3503): reduced air pressure: 16.04.2018 17:00:00 - 22.04.2018 17:00:00 (BST)Trawscoed, United Kingdom (3503): visibility: 16.04.2018 17:00:00 - 22.04.2018 17:00:00 (BST)Trawscoed, United Kingdom (3503): precipitation: 16.04.2018 17:00:00 - 22.04.2018 17:00:00 (BST)
Date & Time tt [°C] td [°C] tt -20cm [°C] tt -100cm [°C] ff [km/h] ff [kn] fx [km/h] fx [kn] dd ppp [hPa] vv [km] rr [mm]
22.04.2018 17:00:00 - - - - - - - - - - - -
22.04.2018 16:00:00 12,6 9,5 - - 18 10 - - W 1009,6 30 0,0
22.04.2018 15:00:00 12,0 10,6 - - 15 8 - - W 1009,7 20 2,4
22.04.2018 14:00:00 11,6 10,2 - - 11 6 - - WSW 1009,3 4,4 0,2
22.04.2018 13:00:00 11,7 10,0 - - 9 5 - - SW 1009,1 3,3 0,0
22.04.2018 12:00:00 13,5 8,8 - - 11 6 - - W 1008,5 30 0,2
22.04.2018 11:00:00 13,2 6,2 - - 11 6 - - SW 1008,5 45 0,0
22.04.2018 10:00:00 11,3 7,4 12,7 9,7 8 4 - - S 1008,8 23 0,0
22.04.2018 09:00:00 10,6 7,6 - - 9 5 - - SSE 1008,9 10 0,8
22.04.2018 08:00:00 11,6 9,8 - - 9 5 - - W 1009,1 3,0 0,4
22.04.2018 07:00:00 11,6 10,4 - - 4 2 - - W 1008,4 6 0,0
22.04.2018 06:00:00 10,7 9,7 - - 2 1 - - SSW 1008,1 6 0,0
22.04.2018 05:00:00 11,4 10,0 - - 2 1 - - NW 1008,5 7 0,0
22.04.2018 04:00:00 12,7 10,4 - - 11 6 - - WNW 1009,1 10 0,0
22.04.2018 03:00:00 13,1 9,5 - - 2 1 - - E 1009,2 19 0,0
22.04.2018 02:00:00 15,5 10,3 - - 13 7 - - S 1009,4 23 0,0
22.04.2018 01:00:00 15,5 10,8 - - 15 8 - - SSE 1010,1 28 0,0
22.04.2018 00:00:00 16,3 10,8 - - 21 11 - - SSE 1010,7 25 0,0
21.04.2018 23:00:00 16,7 11,0 - - 15 8 - - SSE 1010,8 28 0,0
21.04.2018 22:00:00 11,2 9,2 - - 5 3 - - N 1011,5 18 0,0
21.04.2018 21:00:00 12,7 9,3 - - 0 0 - - N 1012,1 19 0,0
21.04.2018 20:00:00 15,6 9,3 - - 5 3 - - WNW 1012,4 22 0,0
21.04.2018 19:00:00 17,2 10,1 - - 11 6 - - W 1013,0 30 0,0
21.04.2018 18:00:00 19,5 11,2 - - 8 4 - - WNW 1013,3 17 0,0
21.04.2018 17:00:00 20,2 10,4 - - 15 8 - - W 1013,7 22 0,0
21.04.2018 16:00:00 24,4 12,2 - - 16 9 - - S 1014,0 18 0,0
21.04.2018 15:00:00 24,5 13,4 - - 15 8 - - SSW 1015,0 35 0,0
21.04.2018 14:00:00 23,1 11,9 - - 18 10 - - SSE 1016,2 50 0,0
21.04.2018 13:00:00 22,2 11,3 - - 15 8 - - SSW 1017,3 35 0,0
21.04.2018 12:00:00 21,1 11,7 - - 13 7 - - SSE 1018,2 21 0,0
21.04.2018 11:00:00 19,5 10,8 - - 11 6 - - SSE 1019,1 19 0,0
21.04.2018 10:00:00 18,0 9,9 12,2 9,5 4 2 - - SSW 1019,8 40 0,0
21.04.2018 09:00:00 14,7 9,9 - - 2 1 - - N 1020,6 24 0,0
21.04.2018 08:00:00 9,3 9,3 - - 2 1 - - NE 1021,3 35 0,0
21.04.2018 07:00:00 4,0 3,8 - - 2 1 - - SSE 1021,8 25 0,0
21.04.2018 06:00:00 2,9 2,7 - - 2 1 - - NNE 1022,0 16 0,0
21.04.2018 05:00:00 3,0 2,8 - - 2 1 - - NW 1022,5 16 0,0
21.04.2018 04:00:00 3,5 3,2 - - 2 1 - - E 1023,0 18 0,0
21.04.2018 03:00:00 3,6 3,2 - - 0 0 - - N 1023,5 14 0,0
21.04.2018 02:00:00 4,4 4,1 - - 2 1 - - W 1023,8 18 0,0
21.04.2018 01:00:00 3,8 3,5 - - 2 1 - - S 1024,4 22 0,0
21.04.2018 00:00:00 4,9 4,6 - - 2 1 - - SE 1024,9 19 0,0
20.04.2018 23:00:00 5,9 5,6 - - 4 2 - - SE 1025,1 23 0,0
20.04.2018 22:00:00 6,1 5,3 - - 0 0 - - N 1025,3 20 0,0
20.04.2018 21:00:00 8,3 6,5 - - 0 0 - - N 1025,1 8 0,0
20.04.2018 20:00:00 12,0 7,8 - - 5 3 - - WNW 1024,7 17 0,0
20.04.2018 19:00:00 13,5 8,6 - - 8 4 - - NW 1024,9 45 0,0
20.04.2018 18:00:00 14,3 9,2 - - 11 6 - - W 1024,9 50 0,0
20.04.2018 17:00:00 15,0 9,4 - - 11 6 - - W 1024,9 30 0,0
20.04.2018 16:00:00 14,7 9,7 - - 9 5 - - NNW 1025,2 29 0,0
20.04.2018 15:00:00 15,7 11,6 - - 15 8 - - WNW 1025,2 20 0,0
20.04.2018 14:00:00 14,2 10,8 - - 5 3 - - WNW 1025,6 28 0,0
20.04.2018 13:00:00 12,6 9,8 - - 8 4 - - W 1026,2 4,9 0,0
20.04.2018 12:00:00 11,5 9,5 - - 8 4 - - WNW 1026,4 1,8 0,0
20.04.2018 11:00:00 11,6 9,1 - - 11 6 - - WNW 1026,2 14 0,0
20.04.2018 10:00:00 10,5 8,2 12,0 9,2 8 4 - - WNW 1026,0 14 0,0
20.04.2018 09:00:00 10,5 8,0 - - 4 2 - - N 1025,6 23 0,0
20.04.2018 08:00:00 9,8 8,4 - - 4 2 - - NW 1025,5 29 0,0
20.04.2018 07:00:00 8,3 7,2 - - 0 0 - - N 1025,1 13 0,0
20.04.2018 06:00:00 9,5 8,6 - - 4 2 - - WNW 1024,9 12 0,0
20.04.2018 05:00:00 9,8 8,8 - - 8 4 - - W 1024,9 12 0,0
20.04.2018 04:00:00 10,3 8,3 - - 8 4 - - N 1024,8 40 0,0
20.04.2018 03:00:00 10,7 9,0 - - 4 2 - - NW 1025,1 45 0,0
20.04.2018 02:00:00 10,9 9,9 - - 5 3 - - W 1025,4 28 0,0
20.04.2018 01:00:00 10,8 10,3 - - 4 2 - - W 1025,5 9 0,0
20.04.2018 00:00:00 10,9 10,3 - - 5 3 - - W 1025,3 6 0,0
19.04.2018 23:00:00 11,1 10,3 - - 8 4 - - W 1025,2 6 0,0
19.04.2018 22:00:00 11,6 10,6 - - 4 2 - - NW 1025,4 10 0,0
19.04.2018 21:00:00 11,7 10,2 - - 8 4 - - WNW 1025,3 12 0,0
19.04.2018 20:00:00 12,0 10,2 - - 8 4 - - W 1025,1 11 0,0
19.04.2018 19:00:00 12,4 10,4 - - 8 4 - - WNW 1025,1 3,0 0,0
19.04.2018 18:00:00 12,8 10,6 - - 11 6 - - WNW 1025,2 17 0,0
19.04.2018 17:00:00 13,7 10,9 - - 13 7 - - WNW 1025,0 15 0,0
19.04.2018 16:00:00 15,9 12,0 - - 18 10 - - W 1024,4 9 0,0
19.04.2018 15:00:00 17,7 12,8 - - 15 8 - - WNW 1024,3 18 0,0
19.04.2018 14:00:00 17,6 12,5 - - 11 6 - - WNW 1024,1 16 0,0
19.04.2018 13:00:00 17,6 12,6 - - 8 4 - - WNW 1024,1 18 0,0
19.04.2018 12:00:00 15,8 11,8 - - 11 6 - - NW 1024,4 19 0,0
19.04.2018 11:00:00 16,0 11,5 - - 16 9 - - W 1023,8 13 0,0
19.04.2018 10:00:00 16,9 10,7 11,5 9,0 8 4 - - S 1023,6 23 0,0
19.04.2018 09:00:00 15,4 10,2 - - 8 4 - - S 1023,3 16 0,0
19.04.2018 08:00:00 11,1 9,6 - - 0 0 - - N 1023,0 40 0,0
19.04.2018 07:00:00 7,3 6,9 - - 5 3 - - NNW 1022,5 18 -
19.04.2018 06:00:00 5,6 4,5 - - 2 1 - - SSE 1022,1 13 -
19.04.2018 05:00:00 6,7 5,5 - - 0 0 - - N 1021,9 21 -
19.04.2018 04:00:00 8,8 7,2 - - 5 3 - - SSE 1021,9 30 -
19.04.2018 03:00:00 11,3 7,6 - - 4 2 - - E 1021,4 30 -
19.04.2018 02:00:00 12,5 9,5 - - 4 2 - - ESE 1021,0 45 0,0
19.04.2018 01:00:00 12,7 9,1 - - 2 1 - - ENE 1021,8 45 0,0
19.04.2018 00:00:00 14,0 9,3 - - 5 3 - - N 1021,5 45 0,0
18.04.2018 23:00:00 14,0 8,8 - - 4 2 - - NNE 1021,4 50 0,0
18.04.2018 22:00:00 13,5 8,3 - - 4 2 - - NW 1021,4 45 0,0
18.04.2018 21:00:00 16,9 8,9 - - 13 7 - - SSE 1020,7 50 0,0
18.04.2018 20:00:00 18,7 9,2 - - 16 9 - - SSE 1020,6 50 0,0
18.04.2018 19:00:00 20,3 9,5 - - 21 11 48 26 SSE 1020,2 40 0,0
18.04.2018 18:00:00 20,6 10,7 - - 28 15 61 33 SSE 1020,4 40 0,0
18.04.2018 17:00:00 21,4 11,2 - - 22 12 59 32 SSE 1020,8 30 0,0
18.04.2018 16:00:00 20,8 11,4 - - 29 16 50 27 SSE 1021,5 45 0,0
18.04.2018 15:00:00 21,0 11,4 - - 26 14 48 26 SSE 1022,6 40 0,0
18.04.2018 14:00:00 21,0 13,0 - - 18 10 - - SSE 1022,8 40 0,0
18.04.2018 13:00:00 19,3 12,3 - - 13 7 - - SSE 1023,4 21 0,0
18.04.2018 12:00:00 17,3 12,1 - - 15 8 - - SSE 1024,2 23 0,0
18.04.2018 11:00:00 14,2 12,0 - - 15 8 - - SSE 1024,4 23 0,0
18.04.2018 10:00:00 13,9 12,2 10,7 9,0 21 11 - - S 1023,9 10 0,0
18.04.2018 09:00:00 12,9 11,7 - - 13 7 - - S 1024,0 9 0,0
18.04.2018 08:00:00 12,7 11,5 - - 13 7 - - SSE 1023,4 7 0,2
18.04.2018 07:00:00 12,9 11,6 - - 15 8 - - S 1022,3 5 0,0
18.04.2018 06:00:00 13,1 11,6 - - 18 10 46 25 S 1021,4 7 0,4
18.04.2018 05:00:00 13,3 11,7 - - 21 11 - - S 1021,0 9 0,2
18.04.2018 04:00:00 13,0 11,6 - - 22 12 - - SSE 1020,1 13 0,0
18.04.2018 03:00:00 12,8 11,3 - - 21 11 - - SSE 1020,0 28 0,0
18.04.2018 02:00:00 12,8 11,5 - - 21 11 46 25 SSE 1019,7 11 0,0
18.04.2018 01:00:00 12,8 11,6 - - 16 9 - - S 1019,5 8 0,2
18.04.2018 00:00:00 12,7 11,6 - - 11 6 - - S 1019,5 4,0 0,0
17.04.2018 23:00:00 12,8 11,3 - - 16 9 - - S 1019,0 12 0,0
17.04.2018 22:00:00 12,6 11,2 - - 9 5 - - SSE 1018,4 10 0,0
17.04.2018 21:00:00 12,8 11,0 - - 13 7 - - S 1018,0 45 0,0
17.04.2018 20:00:00 12,6 11,2 - - 9 5 - - S 1016,7 15 0,2
17.04.2018 19:00:00 12,5 11,1 - - 13 7 - - S 1016,3 4,9 0,0
17.04.2018 18:00:00 12,6 11,1 - - 13 7 - - S 1015,6 4,6 0,0
17.04.2018 17:00:00 13,2 10,8 - - 21 11 50 27 S 1014,9 24 0,2
17.04.2018 16:00:00 12,3 10,9 - - 24 13 - - S 1014,6 7 0,2
17.04.2018 15:00:00 12,9 11,0 - - 21 11 - - S 1014,0 9 0,0
17.04.2018 14:00:00 12,2 10,3 - - 18 10 - - S 1013,9 7 0,0
17.04.2018 13:00:00 12,0 10,4 - - 16 9 50 27 SSW 1013,5 24 0,6
17.04.2018 12:00:00 12,3 11,0 - - 22 12 48 26 S 1012,1 8 1,0
17.04.2018 11:00:00 12,0 10,5 - - 24 13 48 26 S 1011,3 3,9 0,8
17.04.2018 10:00:00 11,5 9,7 10,7 8,9 22 12 - - S 1010,9 10 1,0
17.04.2018 09:00:00 10,9 9,4 - - 24 13 54 29 S 1010,6 8 1,2
17.04.2018 08:00:00 10,6 8,7 - - 26 14 50 27 S 1010,2 8 0,6
17.04.2018 07:00:00 10,4 8,5 - - 24 13 54 29 S 1009,7 7 0,6
17.04.2018 06:00:00 10,6 8,8 - - 29 16 63 34 S 1009,0 5 0,4
17.04.2018 05:00:00 10,8 8,9 - - 29 16 57 31 S 1008,9 4,2 0,0
17.04.2018 04:00:00 11,1 8,4 - - 28 15 54 29 SSE 1009,2 8 0,0
17.04.2018 03:00:00 11,8 7,6 - - 28 15 57 31 SSE 1009,5 17 0,0
17.04.2018 02:00:00 11,6 7,0 - - 31 17 61 33 SSE 1009,2 21 0,0
17.04.2018 01:00:00 11,4 6,5 - - 35 19 63 34 SSE 1009,6 23 0,0
17.04.2018 00:00:00 11,1 5,7 - - 29 16 59 32 SSE 1009,4 24 0,0
16.04.2018 23:00:00 11,0 4,9 - - 35 19 61 33 SSE 1009,1 35 0,0
16.04.2018 22:00:00 11,2 4,8 - - 28 15 54 29 SSE 1010,2 30 0,0
16.04.2018 21:00:00 11,1 5,5 - - 22 12 - - SSE 1011,2 29 0,0
16.04.2018 20:00:00 11,6 5,1 - - 21 11 48 26 SSE 1011,3 29 0,0
16.04.2018 19:00:00 12,1 4,7 - - 24 13 - - S 1010,8 23 0,0
16.04.2018 18:00:00 12,4 4,8 - - 18 10 - - S 1010,7 35 0,0
16.04.2018 17:00:00 12,8 4,9 - - 21 11 - - S 1010,6 22 0,0

tt = temperature
td = dewpoint
tt -20cm = temperature -20cm
tt -100cm = temperature -100cm
ff = wind speed
fx = gusts
dd = wind direction
ppp = reduced air pressure
vv = visibility
rr = precipitation

Next stations